Weather History for Mumbai, India

Change the Weather History Date:

Monday, January 13, 2014

  Actual Average Record
Temperature  
Mean Temperature 73 °F -  
Max Temperature 81 °F 86 °F 95 °F (2002)
Min Temperature 65 °F 67 °F 56 °F (2015)
Cooling Degree Days 8    
Growing Degree Days 23 (Base 50)    
Moisture  
Dew Point 64 °F    
Average Humidity 70    
Maximum Humidity 82    
Minimum Humidity 48    
Precipitation  
Precipitation 0.00 in - - ()
Sea Level Pressure  
Sea Level Pressure 29.96 in    
Wind  
Wind Speed 4 mph ()    
Max Wind Speed 12 mph    
Max Gust Speed -    
Visibility 1.3 miles    
Events      
Averages and records for this station are not official NWS values.
T = Trace of Precipitation, MM = Missing Value Source: Averaged Metar Reports

Daily Weather History Graph

Daily Weather History Graph

Search for Another Location

Airport:

Trip Planner

Search our weather history database for the weather conditions in past years. The results will help you decide how hot, cold, wet, or windy it might be!

Date:

Astronomy

Jan. 13, 2014 Rise Set
Actual Time 7:14 AM IST 6:19 PM IST
Civil Twilight 6:51 AM IST 6:43 PM IST
Nautical Twilight 6:24 AM IST 7:10 PM IST
Astronomical Twilight 5:57 AM IST 7:37 PM IST
Moon 4:10 PM IST (1/13) 4:43 AM IST (1/13)
Length of Visible Light 11h 52m
Length of Day
11h 05m
Waxing Gibbous, 92% of the Moon is Illuminated
Jan 13
Waxing Gibbous
Jan 16
Full
Jan 24
Last Quarter
Jan 31
New
Feb 7
First Quarter

Hourly Weather History & Observations

Time (IST) Temp. Dew Point Humidity Pressure Visibility Wind Dir Wind Speed Gust Speed Precip Events Conditions
12:10 AM 73.4 °F 62.6 °F 69% 30.01 in 1.3 mi Calm Calm - N/A   Haze
2:10 AM 73.4 °F 64.4 °F 73% 29.98 in 1.2 mi ENE 3.5 mph - N/A   Haze
2:30 AM 70 °F 64 °F 76% 29.99 in 1 mi Calm Calm - -   Haze
2:40 AM 73.4 °F 64.4 °F 73% 29.98 in 1.4 mi Calm Calm - N/A   Haze
3:10 AM 71.6 °F 62.6 °F 73% 29.98 in 1.1 mi SSE 5.8 mph - N/A   Haze
3:40 AM 71.6 °F 62.6 °F 73% 29.95 in 1.1 mi ENE 4.6 mph - N/A   Haze
4:10 AM 71.6 °F 62.6 °F 73% 29.95 in 1.1 mi NNE 3.5 mph - N/A   Haze
4:40 AM 71.6 °F 62.6 °F 73% 29.95 in 1.1 mi Calm Calm - N/A   Haze
5:10 AM 71.6 °F 62.6 °F 73% 29.95 in 1.1 mi East 3.5 mph - N/A   Haze
5:30 AM 68 °F 64 °F 82% 29.96 in 1 mi Calm Calm - -   Haze
5:40 AM 69.8 °F 62.6 °F 78% 29.95 in 1.1 mi ESE 4.6 mph - N/A   Haze
6:10 AM 69.8 °F 62.6 °F 78% 29.95 in 1.0 mi East 4.6 mph - N/A   Haze
7:10 AM 69.8 °F 62.6 °F 78% 29.98 in 0.8 mi ENE 4.6 mph - N/A   Haze
7:40 AM 69.8 °F 62.6 °F 78% 29.98 in 0.8 mi ENE 3.5 mph - N/A   Haze
8:10 AM 69.8 °F 62.6 °F 78% 30.01 in 0.7 mi NNE 3.5 mph - N/A   Haze
8:30 AM 68 °F 62 °F 76% 30.01 in 1 mi Calm Calm - -   Haze
8:40 AM 69.8 °F 60.8 °F 73% 30.01 in 0.7 mi Calm Calm - N/A   Haze
9:40 AM 75.2 °F 62.6 °F 65% 30.04 in 0.9 mi Calm Calm - N/A   Haze
10:40 AM 77.0 °F 62.6 °F 61% 30.04 in 1.4 mi Calm Calm - N/A   Smoke
11:10 AM 78.8 °F 62.6 °F 57% 30.01 in 1.6 mi NNW 5.8 mph - N/A   Smoke
11:30 AM 80 °F 64 °F 48% 30.01 in 1 mi West 3.5 mph - -   Smoke
12:10 PM 78.8 °F 62.6 °F 57% 30.01 in 1.6 mi WNW 9.2 mph - N/A   Smoke
1:40 PM 78.8 °F 64.4 °F 61% 29.95 in 1.9 mi West 10.4 mph - N/A   Smoke
2:10 PM 78.8 °F 64.4 °F 61% 29.92 in 1.9 mi WNW 10.4 mph - N/A   Smoke
2:30 PM 81 °F 65 °F 50% 29.92 in 1 mi West 5.8 mph - -   Smoke
2:40 PM 78.8 °F 64.4 °F 61% 29.92 in 1.9 mi WNW 9.2 mph - N/A   Smoke
3:10 PM 78.8 °F 62.6 °F 57% 29.92 in 1.9 mi West 9.2 mph - N/A   Smoke
3:40 PM 78.8 °F 66.2 °F 65% 29.92 in 1.9 mi WNW 9.2 mph - N/A   Smoke
4:10 PM 78.8 °F 66.2 °F 65% 29.89 in 1.9 mi WNW 9.2 mph - N/A   Smoke
4:40 PM 77.0 °F 66.2 °F 69% 29.89 in 1.9 mi WNW 11.5 mph - N/A   Smoke
5:10 PM 77.0 °F 66.2 °F 69% 29.89 in 1.9 mi WNW 10.4 mph - N/A   Smoke
5:30 PM 78 °F 66 °F 58% 29.90 in 1 mi NW 9.2 mph - -   Smoke
5:40 PM 77.0 °F 66.2 °F 69% 29.92 in 1.9 mi NW 10.4 mph - N/A   Smoke
6:10 PM 77.0 °F 66.2 °F 69% 29.92 in 1.9 mi WNW 9.2 mph - N/A   Smoke
6:40 PM 75.2 °F 66.2 °F 73% 29.92 in 1.6 mi NW 6.9 mph - N/A   Haze
7:10 PM 75.2 °F 66.2 °F 73% 29.92 in 1.6 mi WNW 9.2 mph - N/A   Haze
7:40 PM 75.2 °F 66.2 °F 73% 29.95 in 1.6 mi NW 4.6 mph - N/A   Haze
8:10 PM 75.2 °F 66.2 °F 73% 29.95 in 1.4 mi NNW 6.9 mph - N/A   Haze
8:30 PM 74 °F 65 °F 67% 29.96 in 1 mi NNW 3.5 mph - -   Smoke
8:40 PM 75.2 °F 66.2 °F 73% 29.95 in 1.2 mi WNW 5.8 mph - N/A   Smoke
9:10 PM 75.2 °F 66.2 °F 73% 29.98 in 1.2 mi NNW 5.8 mph - N/A   Smoke
9:40 PM 75.2 °F 66.2 °F 73% 29.98 in 1.2 mi North 3.5 mph - N/A   Smoke
10:10 PM 73.4 °F 66.2 °F 78% 29.98 in 1.1 mi NNW 4.6 mph - N/A   Smoke
10:40 PM 73.4 °F 66.2 °F 78% 29.98 in 1.1 mi Calm Calm - N/A   Smoke
11:10 PM 73.4 °F 66.2 °F 78% 29.98 in 1.0 mi NNE 3.5 mph - N/A   Smoke
11:30 PM 72 °F 67 °F 81% 30.01 in 1 mi Calm Calm - -   Haze
11:40 PM 73.4 °F 66.2 °F 78% 29.98 in 1.0 mi NNW 5.8 mph - N/A   Smoke